User: anonymous   Login
Location: Chiroubles
(46.1812°N, 4.6660°E)
Time: 11:48:36
(UTC+00:00)
Language:

Cosmos 1513 Rocket - Orbit

View from above orbital plane
View from above orbital plane
View from above satellite
View from above satellite

Ground track
Ground track

The orbit data is extracted from the following two-line orbital elements,

1 14547U 83120B   20293.61756007 -.00000026 +00000-0 -42227-4 0  9994
2 14547 082.9288 263.2459 0048015 052.3156 308.2341 13.77131176608430
Epoch (UTC): 19 October 2020 14:49:17
Eccentricity: 0.0048015
inclination: 82.9288°
perigee height: 939 km
apogee height: 1009 km
right ascension of ascending node: 263.2459°
argument of perigee: 52.3156°
revolutions per day: 13.77131176
mean anomaly at epoch: 308.2341°
orbit number at epoch: 60843

The dashed part of the orbit path shows where the satellite is in the earth's shadow,  

DLR